Starlink 30961

operational
NORAD ID: 58445 Int'l Des: 2023-183 Owner: SPXS Country: US Constellation: starlink
LEOCIRCULAR

关于 Starlink 30961

正在加载描述...

实时位置

正在加载3D地球...

即将过境

高度历史

Altitude vs Time

uPlot chart will show altitude changes over time

两行轨道根数

1 58445U 23183J 25350.69612083 .00000863 00000-0 78924-4 0 9994
2 58445 43.0026 133.9585 0001441 269.8932 90.1745 15.02536096114230
Epoch: Dec 16, 2025 • Age: 18 hours

当前状态

高度 563.1 km
速度 7.59 km/s
星下点 42.55°N, 15.05°W
发射日期 Nov 28, 2023
运行时间 2 years
类型 internet

技术详情

分类 Payload
质量 730.00 kg
干质量 700.00 kg
总质量 730.00 kg
长度 0.30 m
直径 4.10 m
跨度 29.00 m
形状 Box + pan
制造商 SPXS
平台类型 Starlink V2M
阶段状态 In Orbit
所有者/国家 SPXS/US

大型星座

Loading constellations...